www.pogodaiklimat.ru

Погода и климат >> Архив погоды >> Австралия >> Новый Южный Уэльс >> Фоулерс Гэп


ПОГОДА в Фоулерс Гэп

  • Прогноз погоды в Фоулерс Гэп
  • Монитор погоды в Фоулерс Гэп

АРХИВ ПОГОДЫ в Фоулерс Гэп

Время (UTC), дата Ветер
(напр.,м/с)
 
Видим.   Явления Облачность Т
(С)
Тd
(С)
f
(%)
Тe
(С)
Тes
(С)
Комфортность P
(гПа)
Po
(гПа)
Тmin
(С)
Tmax
(С)
R
(мм)
R24
(мм)
S
(см)
22 11.04 штиль 0 н/о н/о +11.8 -1.3 40 +12 +12 1022.6 1001.3
23 11.04 ЮВ 4 н/о н/о +17.3 -0.9 29 +17 +17 1022.8 1001.5
01 12.04 В 3 н/о н/о +23.0 +0.8 23 +22 +22 комфорт 1022.7 1001.4
02 12.04 С 2 н/о н/о +24.6 -1.3 18 +23 +23 комфорт 1022.1 1000.8 +7.6
04 12.04 ЮЗ 2 н/о н/о +26.6 -2.1 15 +24 +24 комфорт 1020.2 999.0
05 12.04 В 2 н/о н/о +27.0 -3.7 13 +24 +24 комфорт 1019.6 998.4
07 12.04 С 2 н/о н/о +27.2 -4.6 12 +24 +24 комфорт 1019.4 998.2
08 12.04 В 3 н/о н/о +25.8 -5.7 12 +23 +23 комфорт 1019.8 998.6
10 12.04 Ю 2 н/о н/о +20.1 -6.5 16 +20 +20 1021.5 1000.2
11 12.04 штиль 0 н/о н/о +18.1 -6.6 18 +18 +18 1021.9 1000.6
13 12.04 ЮЗ 2 н/о н/о +16.2 -5.5 22 +16 +16 1022.7 1001.4
14 12.04 штиль 0 н/о н/о +13.5 -6.6 24 +14 +14 1022.3 1001.0 +28.0
16 12.04 З 3 н/о н/о +12.6 -5.4 28 +12 +12 1021.7 1000.4
17 12.04 З 2 н/о н/о +11.7 -5.3 30 +12 +12 1021.6 1000.3
19 12.04 СЗ 2 н/о н/о +11.0 -4.6 33 +11 +11 1021.5 1000.2
20 12.04 Ю 2 н/о н/о +10.6 -5.0 33 +10 +10 1022.0 1000.7
22 12.04 ЮЗ 3 н/о н/о +13.3 -3.9 30 +13 +13 1023.2 1001.9
23 12.04 штиль 0 н/о н/о +18.0 -3.4 23 +18 +18 1023.5 1002.2
01 13.04 В 4 н/о н/о +24.7 -2.8 16 +23 +23 комфорт 1023.0 1001.7
02 13.04 ЮВ 4 н/о н/о +25.5 -3.9 14 +23 +23 комфорт 1022.4 1001.1 +9.3
04 13.04 ЮВ 4 н/о н/о +27.2 -7.0 10 +24 +24 комфорт 1020.8 999.5
05 13.04 ЮВ 4 н/о н/о +27.0 -7.2 10 +24 +24 комфорт 1020.4 999.1
07 13.04 Ю 4 н/о н/о +26.4 -7.6 10 +23 +23 комфорт 1019.8 998.6
08 13.04 Ю 5 н/о н/о +25.3 -6.1 12 +23 +23 комфорт 1020.2 999.0
10 13.04 Ю 4 н/о н/о +21.9 -5.9 15 +21 +21 комфорт 1021.4 1000.1
11 13.04 Ю 4 н/о н/о +21.2 -4.8 17 +20 +20 1021.7 1000.4
13 13.04 Ю 2 н/о н/о +17.3 -4.6 22 +18 +18 1021.5 1000.2
14 13.04 Ю 3 н/о н/о +17.5 -4.4 22 +18 +18 1021.3 1000.0 +28.2
16 13.04 Ю 3 н/о н/о +17.6 -4.3 22 +18 +18 1020.4 999.1
17 13.04 Ю 2 н/о н/о +16.8 -4.4 23 +17 +17 1019.8 998.6
19 13.04 Ю 3 н/о н/о +17.4 -4.5 22 +18 +18 1019.8 998.6
20 13.04 Ю 3 н/о н/о +16.4 -4.2 24 +16 +16 1020.4 999.1
22 13.04 Ю 4 н/о н/о +17.8 -3.6 23 +18 +18 1021.0 999.7
23 13.04 ЮВ 4 н/о н/о +19.7 -3.2 21 +20 +20 1021.8 1000.5
01 14.04 В 4 н/о н/о +24.3 -3.1 16 +22 +22 комфорт 1020.9 999.6
02 14.04 В 4 н/о н/о +26.9 -2.8 14 +24 +24 комфорт 1019.9 998.7 +16.1
04 14.04 ЮВ 1 н/о н/о +27.6 -1.3 15 +25 +25 комфорт 1018.2 997.0
05 14.04 В 2 н/о н/о +29.1 -1.1 14 +26 +26 жарко 1017.7 996.5
07 14.04 СЗ 1 н/о н/о +29.2 -3.1 12 +26 +26 жарко 1016.8 995.6
08 14.04 ЮВ 3 н/о н/о +27.6 -2.3 14 +25 +25 комфорт 1016.7 995.5
10 14.04 ЮВ 4 н/о н/о +23.6 -3.7 16 +22 +22 комфорт 1018.0 996.8
11 14.04 ЮВ 5 н/о н/о +22.8 -4.3 16 +21 +21 комфорт 1018.6 997.4
13 14.04 ЮВ 5 н/о н/о +20.7 -4.4 18 +20 +20 1018.7 997.5
14 14.04 Ю 2 н/о н/о +19.2 -4.3 20 +20 +20 1019.0 997.8 +29.6
16 14.04 Ю 2 н/о н/о +14.8 -5.0 25 +15 +15 1018.0 996.8
17 14.04 Ю 3 н/о н/о +14.6 -5.2 25 +14 +14 1017.8 996.6
19 14.04 штиль 0 н/о н/о +12.0 -5.9 28 +12 +12 1018.1 996.9
20 14.04 З 2 н/о н/о +11.6 -5.8 29 +11 +11 1018.6 997.4
22 14.04 штиль 0 н/о н/о +14.5 -4.7 26 +15 +15 1019.6 998.4
23 14.04 штиль 0 н/о н/о +19.5 -3.4 21 +19 +19 1019.7 998.5
01 15.04 С 6 н/о н/о +26.9 +2.1 20 +25 +25 комфорт 1019.0 997.8
02 15.04 С 6 н/о н/о +29.3 +3.3 19 +27 +27 жарко 1018.6 997.4 +10.9
04 15.04 СЗ 5 н/о н/о +30.9 +1.3 15 +28 +28 жарко 1016.6 995.4
05 15.04 З 6 н/о н/о +31.4 +1.7 15 +29 +29 жарко 1016.2 995.0
07 15.04 СЗ 2 н/о н/о +31.2 +2.4 16 +29 +29 жарко 1016.2 995.0
08 15.04 СЗ 4 н/о н/о +29.6 +2.0 17 +27 +27 жарко 1016.5 995.3
10 15.04 З 2 н/о н/о +25.8 +1.8 21 +24 +24 комфорт 1018.0 996.8
11 15.04 штиль 0 н/о н/о +24.3 +1.2 22 +23 +23 комфорт 1018.4 997.2
13 15.04 штиль 0 н/о н/о +23.1 +2.0 25 +23 +23 комфорт 1018.9 997.7
14 15.04 штиль 0 н/о н/о +21.2 +1.0 26 +21 +21 комфорт 1018.4 997.2 +32.0
16 15.04 штиль 0 н/о н/о +21.5 +2.2 28 +21 +21 комфорт 1018.1 996.9
17 15.04 штиль 0 н/о н/о +20.7 +2.0 29 +21 +21 комфорт 1017.8 996.6
19 15.04 СВ 1 н/о н/о +19.9 +1.8 30 +22 +22 комфорт 1018.5 997.3
20 15.04 штиль 0 н/о н/о +18.9 +2.3 33 +19 +19 1019.5 998.3
22 15.04 В 1 н/о н/о +21.6 +2.3 28 +21 +21 комфорт 1020.7 999.4
23 15.04 С 7 н/о н/о +26.2 +4.6 25 +25 +25 комфорт 1021.2 999.9
01 16.04 С 8 н/о н/о +29.5 +4.2 20 +28 +28 жарко 1020.9 999.6
02 16.04 С 6 н/о н/о +30.6 +3.6 18 +28 +28 жарко 1020.4 999.1 +18.8
04 16.04 С 4 н/о н/о +32.2 +3.2 16 +30 +30 жарко 1018.3 997.1
05 16.04 СВ 6 н/о н/о +31.7 +2.8 16 +29 +29 жарко 1018.1 996.9
07 16.04 С 3 н/о н/о +31.5 +2.7 16 +29 +29 жарко 1017.9 996.7
08 16.04 СВ 4 н/о н/о +30.6 +2.8 17 +28 +28 жарко 1018.2 997.0
10 16.04 С 5 н/о н/о +28.0 +3.0 20 +26 +26 жарко 1019.0 997.8
11 16.04 С 5 н/о н/о +27.8 +3.5 21 +26 +26 жарко 1019.5 998.3
13 16.04 С 5 н/о н/о +25.8 +3.7 24 +25 +25 комфорт 1019.8 998.6
14 16.04 С 4 н/о н/о +23.3 +3.3 27 +23 +23 комфорт 1019.5 998.3 +32.7
16 16.04 С 6 н/о н/о +25.7 +3.6 24 +25 +25 комфорт 1019.2 998.0
17 16.04 С 7 н/о н/о +25.3 +3.9 25 +24 +24 комфорт 1018.5 997.3
19 16.04 С 6 н/о н/о +24.3 +4.1 27 +24 +24 комфорт 1018.6 997.4
20 16.04 С 6 н/о н/о +23.4 +3.9 28 +23 +23 комфорт 1019.1 997.9
22 16.04 В 4 н/о н/о +21.2 +3.4 31 +21 +21 комфорт 1020.2 999.0
23 16.04 С 5 н/о н/о +24.9 +3.5 25 +24 +24 комфорт 1021.2 999.9
01 17.04 С 8 н/о н/о +28.6 +3.5 20 +27 +27 жарко 1020.8 999.5
02 17.04 С 7 н/о н/о +30.2 +3.3 18 +28 +28 жарко 1020.4 999.1 +20.6
04 17.04 С 5 н/о н/о +31.1 +3.2 17 +29 +29 жарко 1018.8 997.6
05 17.04 С 4 н/о н/о +31.8 +2.9 16 +29 +29 жарко 1018.7 997.5
07 17.04 С 3 н/о н/о +31.6 +2.7 16 +29 +29 жарко 1018.6 997.4
08 17.04 СВ 4 н/о н/о +30.2 +3.3 18 +28 +28 жарко 1018.9 997.7
10 17.04 С 4 н/о н/о +27.5 +3.9 22 +26 +26 жарко 1020.0 998.8
11 17.04 С 3 н/о н/о +26.2 +3.5 23 +25 +25 комфорт 1020.7 999.4
13 17.04 штиль 0 н/о н/о +21.8 +2.5 28 +22 +22 комфорт 1021.0 999.7
14 17.04 С 5 н/о н/о +25.5 +3.5 24 +25 +25 комфорт 1020.7 999.4 +32.4
16 17.04 СВ 5 н/о н/о +24.9 +4.1 26 +24 +24 комфорт 1020.6 999.3
17 17.04 Ю 1 н/о н/о +21.7 +2.9 29 +22 +22 комфорт 1020.6 999.3
19 17.04 Ю 2 н/о н/о +20.5 +3.7 33 +22 +22 комфорт 1021.0 999.7
20 17.04 ЮЗ 2 н/о н/о +17.9 +2.2 35 +19 +19 1021.7 1000.4
22 17.04 Ю 8 н/о н/о +18.9 +11.0 60 +19 +19 1024.0 1002.7
23 17.04 ЮВ 7 н/о н/о +20.2 +11.7 58 +22 +22 комфорт 1024.6 1003.3
01 18.04 ЮВ 5 н/о н/о +24.8 +10.3 40 +26 +26 жарко 1024.5 1003.2
02 18.04 ЮВ 4 н/о н/о +26.2 +9.5 35 +27 +27 жарко 1024.0 1002.7 +16.1
04 18.04 Ю 3 н/о н/о +29.1 +7.7 26 +28 +28 жарко 1022.2 1000.9
05 18.04 СВ 2 н/о н/о +29.8 +7.1 24 +29 +29 жарко 1021.8 1000.5
07 18.04 ЮВ 3 н/о н/о +29.6 +6.3 23 +28 +28 жарко 1021.5 1000.2
08 18.04 ЮВ 4 н/о н/о +28.7 +6.7 25 +28 +28 жарко 1021.9 1000.6
10 18.04 ЮВ 4 н/о н/о +25.8 +7.4 31 +26 +26 жарко 1023.3 1002.0
11 18.04 Ю 3 н/о н/о +24.3 +7.0 33 +24 +24 комфорт 1023.5 1002.2
13 18.04 ЮВ 3 н/о н/о +23.3 +6.6 34 +24 +24 комфорт 1023.9 1002.6
14 18.04 ЮЗ 3 н/о н/о +20.4 +5.6 38 +22 +22 комфорт 1023.6 1002.3 +31.0
16 18.04 Ю 3 н/о н/о +19.2 +6.0 42 +20 +20 1023.3 1002.0
17 18.04 ЮЗ 1 н/о н/о +18.2 +5.8 44 +20 +20 1022.9 1001.6
19 18.04 Ю 2 н/о н/о +16.7 +4.7 45 +17 +17 1023.1 1001.8
20 18.04 Ю 2 н/о н/о +15.7 +5.0 49 +16 +16 1023.7 1002.4
22 18.04 штиль 0 н/о н/о +17.9 +5.8 45 +18 +18 1024.4 1003.1

 

Местоположение метеостанции Фоулерс Гэп (Новый Южный Уэльс, Австралия): широта -31.08 долгота 141.70 высота над уровнем моря 181 м.

В архиве по умолчанию представлена погода в Фоулерс Гэп за последнюю неделю. Архивные данные за месяц целиком и за предыдущие месяцы, начиная с января 2011 года, Вы можете получить, выбрав интересующий диапазон дат из раскрывающегося списка и нажав кнопку "Ввод!".


*Определитесь, кто Вы:
робот инопланетянин человек

Внимание! Время в таблицах - всемирное. Для получения местного времени необходимо прибавить поправку, которая равна 10 ч.

Смотрите также архив погоды в соседних городах и на ближайших метеорологических станциях:

Погода в Брокен-Хилл аэропорту (Новый Южный Уэльс, Австралия) (105 км)
Погода в Уафт Клифс (Новый Южный Уэльс, Австралия) (133 км)
Погода в Уилкании (Новый Южный Уэльс, Австралия) (167 км)
Погода в Тибообере (Новый Южный Уэльс, Австралия) (184 км)
Погода в Юнте (Южная Австралия, Австралия) (261 км)
Погода в Ли-Крике (Южная Австралия, Австралия) (318 км)
Погода в Айванхо (Новый Южный Уэльс, Австралия) (318 км)
Погода в Милдьюре (Новый Южный Уэльс, Австралия) (352 км)
Погода в Ренмарке (Южная Австралия, Австралия) (360 км)
Погода в Мумбе (Южная Австралия, Австралия) (362 км)

Пояснения к столбцам:

Ветер - указаны скорость ветра в м/с - средняя за 10 мин, порывы в срок и между сроками (в фигурных скобках) и направление, откуда дует ветер: С - северный, СВ - северо-восточный, В - восточный, ЮВ - юго-восточный, Ю - южный, ЮЗ - юго-западный, З - западный, СЗ - северо-западный.
Видимость - горизонтальная дальность видимости в метрах или километрах. При видимости от 1 до 10 км при отсутствии осадков обычно наблюдается дымка, при ухудшении видимости до 1 км и менее - туман. В сухую погоду видимость может ухудшаться дымом, пылью или мглою.
Явления - указаны атмосферные явления, наблюдавшиеся в срок или в последний час перед сроком; фигурными скобками обозначены явления, наблюдавшиеся между сроками (за 1-3 часа до срока); квадратными скобками обозначены град или гололедные отложения с указанием их диаметра в мм.
Облачность - указаны через наклонную черту общая и нижняя облачность в баллах и высота нижней границы облаков в метрах; квадратными скобками обозначены формы облаков: Ci - перистые, Cs - перисто-слоистые, Cc - перисто-кучевые, Ac - высококучевые, As - высокослоистые, Sc - слоисто-кучевые, Ns - слоисто-дождевые, Cu - кучевые, Cb - кучево-дождевые. Подробнее классификацию облаков см. в Атласе облаков (PDF).
T - Температура воздуха - температура, измеренная на высоте 2 м над землей.
Td - Температура точки росы - температура, при понижении до которой содержащийся в воздухе водяной пар достигнет насыщения.
f - Относительная влажность воздуха - влажноcть воздуха, измеренная на высоте 2 м над землей.
Te - Эффективная температура - температура, которую ощущает одетый по сезону человек в тени. Характеристика душности погоды. При расчете учитывается влияние влажности воздуха и скорости ветра на теплоощущения человека.
Tes - Эффективная температура на солнце - температура, которую ощущает человек, с поправкой на солнечный нагрев. Характеристика знойности погоды. Зависит от высоты солнца над горизонтом, облачности и скорости ветра. Ночью, в пасмурную погоду, а также при ветре 12 м/с и более поправка равна нулю.
P - Атмосферное давление - приведенное к уровню моря атмосферное давление.
Po - Атмосферное давление - измеренное на уровне метеостанции атмосферное давление.
Tmin - Минимальная температура - минимум температуры воздуха на высоте 2 м над землей.
Tmax - Максимальная температура - максимум температуры воздуха на высоте 2 м над землей.
R - Количество осадков - Количество выпавших осадков за период времени, мм. При наведении курсора мыши на число - период времени, за который выпало указанное количество осадков.
R24 - Количество осадков - Количество выпавших осадков за 24 часа, мм.
S - Снежный покров - Высота снежного покрова, см. При наведении курсора мыши на число - состояние снежного покрова и степень покрытия местности в баллах.